This demonstration page uses our WeatherBlox Daily Observations layout. Learn more.

Left ArrowRight Arrow

41.12389, -100.76542

Hourly Observations for January 12, 2018

Temp ( °F °C ) Dew Point ( °F °C ) Humidity (%) Winds ( mph kmh ) Pressure ( in mb ) Visibility ( mi km ) Precip ( " mm )
12:53 am 00:53 Cloudy 3 -16.1 -3 -19.4 76 76 NE 6 9 30.42 1030 10 16 0.00 0.00
1:53 am 01:53 Cloudy 6 -14.4 0 -17.8 76 76 E 3 6 30.39 1029 10 16 0.00 0.00
2:53 am 02:53 Cloudy 7 -13.9 -1 -18.3 70 70 ESE 5 7 30.39 1029 10 16 0.00 0.00
3:53 am 03:53 Cloudy 7 -13.9 -1 -18.3 70 70 E 10 17 30.36 1028 10 16 0.00 0.00
4:53 am 04:53 Cloudy 7 -13.9 -1 -18.3 70 70 ESE 8 13 30.34 1028 10 16 0.00 0.00
5:53 am 05:53 Cloudy 7 -13.9 0 -17.8 73 73 SE 8 13 30.34 1027 10 16 0.00 0.00
6:53 am 06:53 Cloudy 7 -13.9 0 -17.8 73 73 ESE 8 13 30.35 1028 10 16 0.00 0.00
7:53 am 07:53 Cloudy 7 -13.9 1 -17.2 76 76 E 9 15 30.37 1028 10 16 0.00 0.03
8:53 am 08:53 Cloudy 8 -13.3 1 -17.2 73 73 ESE 13 20 30.37 1029 10 16 0.00 0.00
9:53 am 09:53 Cloudy 8 -13.3 0 -17.8 69 69 ESE 15 24 30.39 1029 10 16 0.00 0.00
10:53 am 10:53 Cloudy 8 -13.3 0 -17.8 69 69 ESE 14 22 30.43 1031 10 16 0.00 0.00
11:53 am 11:53 Cloudy 9 -12.8 0 -17.8 66 66 E 12 19 30.44 1031 10 16 0.00 0.00
12:53 pm 12:53 Cloudy 10 -12.2 0 -17.8 63 63 ESE 12 19 30.43 1031 10 16 0.00 0.00
1:21 pm 13:21 Cloudy with Light Snow 10 -12.2 1 -17.2 67 67 E 13 20 30.50 1033 2 3 0.00 0.03
1:37 pm 13:37 Cloudy with Light Snow 10 -12.2 1 -17.2 67 67 E 10 17 30.50 1033 4 6 0.00 0.03
1:53 pm 13:53 Cloudy with Light Snow 11 -11.7 1 -17.2 64 64 E 9 15 30.45 1031 6 10 0.00 0.03
2:53 pm 14:53 Cloudy 12 -11.1 2 -16.7 64 64 E 9 15 30.48 1032 10 16 0.00 0.03
3:53 pm 15:53 Cloudy 11 -11.7 2 -16.7 67 67 NE 8 13 30.53 1034 10 16 0.00 0.00
4:27 pm 16:27 Cloudy 11 -11.7 1 -17.2 64 64 NE 7 11 30.65 1038 10 16 0.00 0.00
4:53 pm 16:53 Cloudy 11 -11.7 1 -17.2 64 64 ENE 6 9 30.57 1035 10 16 0.00 0.00
5:53 pm 17:53 Cloudy with Light Snow 7 -13.9 0 -17.8 73 73 NNE 9 15 30.62 1037 4 6 0.00 0.03
6:53 pm 18:53 Cloudy 7 -13.9 -1 -18.3 70 70 NNE 9 15 30.66 1038 10 16 0.00 0.03
7:53 pm 19:53 Cloudy 6 -14.4 -1 -18.3 73 73 NE 7 11 30.66 1038 10 16 0.00 0.00
8:53 pm 20:53 Cloudy 6 -14.4 -2 -18.9 69 69 N 7 11 30.69 1039 10 16 0.00 0.00
9:01 pm 21:01 Cloudy 6 -14.4 -2 -18.9 69 69 NNE 5 7 30.77 1042 10 16 0.00 0.00
9:39 pm 21:39 Cloudy 5 -15 -2 -18.9 72 72 N 6 9 30.83 1044 10 16 0.00 0.00
9:53 pm 21:53 Cloudy 5 -15 -1 -18.3 76 76 N 5 7 30.70 1040 10 16 0.00 0.00
10:53 pm 22:53 Cloudy 6 -14.4 -2 -18.9 69 69 Calm 30.70 1040 10 16 0.00 0.00
11:53 pm 23:53 Cloudy 6 -14.4 -1 -18.3 73 73 N 6 9 30.71 1040 10 16 0.00 0.00

Powered by AerisWeather